Weather in Yuva

Russia / Sverdlovsk Oblast     56°26′02″N   57°56′59″E
temp.,
°C
wind,
m/s
gust,
m/s
humid.,
%
clouds,
%
prec.,
mm/h
press.,
hPa
HPBL,
m
18 april, sun
sun1823:00+5nnw22664 0.0 102314
02:00+3wnw22714 0.0 102110
05:00+2w22795 0.0 102118
08:00+4nw39750 0.0 1020363
11:00+6nnw786899 0.0 10211099
14:00+6nne675092 0.0 10231635
17:00+5ne673927 0.1 10261663
20:00+2ne7104616 0.0 10281032
19 april, mon
mon1923:00−1ene611473 0.0 1031719
02:00−2ene510440 0.0 1032780
05:00−2e59440 0.0 1034699
08:00−2e58370 0.0 1035990
11:00+1e57270 0.0 10351529
14:00+3e45260 0.0 10341861
17:00+4ene34275 0.0 10341948
20:00+2ene33410 0.0 103469
20 april, tue
tue2023:000ese22460 0.0 103628
02:00−1s12500 0.0 103623
05:00−1wsw11505 0.0 103719
08:000w23425 0.0 1037264
11:00+4nw34335 0.0 10361162
14:00+7nw45325 0.0 10341416
17:00+7nw563348 0.0 10331391
20:00+5nw23460 0.0 103352
21 april, wed
wed2123:00+2nw22550 0.0 103412
02:00+1wnw11610 0.0 103410
05:00+1nw11610 0.0 103410
08:00+3wnw11540 0.0 1035136
11:00+7nw22420 0.0 1034744
14:00+10ne11370 0.0 10331037
17:00+11sse11360 0.0 10331116
20:00+9sse22470 0.0 103320
22 april, thu
thu2223:00+7s22535 0.0 103410
02:00+5sse225811 0.0 103410
05:00+4s22645 0.0 103510
08:00+6sse236123 0.0 1036104
11:00+11s34435 0.0 1036631
14:00+14s453344 0.0 10351601
17:00+14s4532100 0.0 10341891
20:00+11wsw2248100 0.0 103412